Theta_e
306 307 307 306 306 305 305 306 307 307 307 307 307 307 306 307 307 308 307 307 307 307 308 307 307 308 307 308 308 308 306 304 304 304 304 304 304 304 305 306 307 307 308 308 308 309 309 309 308 309 308 310 308 307 308 305 316 330 323 319 314 308 308 308 307 306 304 304 306 304 305 309 306 303 302 301 301 301 301 300 299 294 292 293 293 292 290 290
306 307 307 306 305 305 306 306 307 308 308 307 307 307 307 307 307 307 307 307 307 307 307 307 307 307 307 308 308 308 308 306 304 303 303 304 304 305 305 305 307 308 307 308 308 308 310 310 308 308 310 311 307 307 309 305 312 323 322 317 313 312 308 307 307 306 305 304 304 303 303 307 307 305 303 306 303 300 305 301 297 295 292 291 290 291 290 289
306 307 307 306 306 306 306 307 307 307 308 308 308 308 307 307 307 307 307 307 307 308 307 307 307 307 307 307 307 308 309 307 303 303 303 304 304 305 305 306 307 308 308 307 308 307 309 311 308 309 314 313 308 309 312 311 310 313 320 318 312 312 307 305 306 306 306 304 305 304 304 306 305 303 304 308 303 302 308 302 298 297 293 292 291 290 290 289
306 307 307 307 306 306 306 306 306 307 308 308 308 308 307 307 307 307 307 306 307 308 308 308 307 307 307 307 308 308 308 307 303 302 304 304 305 305 305 307 307 308 307 306 307 307 307 309 308 312 316 313 315 315 311 310 310 309 316 319 310 308 305 304 307 307 305 304 305 305 305 305 303 304 305 307 306 306 307 302 302 299 293 293 291 290 290 289
307 307 307 307 307 306 307 306 306 307 308 308 308 308 307 307 306 307 307 306 307 308 308 308 307 308 307 307 309 308 310 309 303 303 304 305 305 305 306 307 308 308 306 307 307 307 307 307 308 316 318 314 320 320 309 307 310 309 308 310 308 306 303 304 307 306 303 302 305 305 305 305 303 304 303 304 308 311 308 303 303 298 293 292 290 289 289 288
307 307 307 307 307 307 306 306 307 307 308 308 308 308 307 306 306 306 307 307 307 307 308 308 307 308 306 306 308 308 311 308 303 304 304 305 305 305 306 306 307 306 306 307 307 306 307 309 310 318 320 314 315 315 310 308 309 310 306 304 307 306 303 304 306 304 303 305 306 304 304 305 305 303 302 304 307 305 301 300 298 294 291 291 289 288 288 287
307 307 307 307 307 307 306 307 306 307 308 308 308 307 306 306 306 307 306 307 307 308 308 307 308 307 306 307 306 307 310 306 303 304 304 305 305 305 306 306 306 306 307 307 306 308 309 313 314 318 321 313 309 310 311 310 312 314 308 305 304 304 304 304 303 303 305 307 303 302 304 306 307 304 303 304 300 296 294 293 292 291 289 289 288 288 287 287
307 307 307 307 307 307 307 307 307 308 308 308 308 306 305 305 305 306 306 307 307 307 306 306 308 307 307 309 307 311 309 304 303 305 304 306 305 305 306 306 307 307 308 307 306 307 310 312 311 315 318 310 309 311 309 309 313 313 309 307 305 303 304 302 302 304 306 303 300 302 304 303 303 303 304 301 295 292 290 289 289 288 288 288 288 287 287 286
307 307 307 307 307 307 307 307 307 308 308 308 307 305 305 304 304 305 305 306 306 306 306 306 307 307 309 307 309 312 307 303 304 304 304 306 305 305 306 305 306 307 307 307 306 306 309 310 308 311 312 309 311 313 310 310 310 310 309 307 305 303 302 301 301 304 303 300 301 305 303 299 299 301 303 299 294 291 289 289 288 288 289 289 288 286 286 286
307 306 307 307 307 307 308 308 308 308 308 308 307 305 305 304 305 305 304 305 305 306 308 307 306 309 309 306 310 311 305 304 304 304 305 306 305 305 305 305 306 307 305 305 306 307 309 309 306 307 310 312 312 310 309 309 309 313 314 309 307 305 301 302 302 301 302 300 301 306 303 300 299 300 303 298 293 291 290 290 289 289 290 289 288 286 286 286
306 307 307 307 307 307 307 308 308 307 307 307 307 307 306 305 306 305 304 306 306 307 307 306 307 308 306 306 311 309 304 305 304 304 305 305 306 305 304 306 305 306 305 304 304 306 307 307 305 305 309 311 311 312 307 306 309 313 313 307 310 311 302 302 303 300 302 300 300 305 302 299 299 300 304 299 293 291 290 290 289 289 289 288 288 286 286 286
307 307 307 307 307 307 307 307 307 307 307 307 307 307 307 307 306 304 305 306 306 307 307 307 307 306 307 306 308 306 304 305 304 304 305 305 306 304 305 305 304 305 305 304 304 306 307 306 307 309 311 310 311 312 307 310 313 312 313 307 311 319 308 302 303 300 302 301 299 302 301 300 300 301 302 296 292 291 290 290 290 289 289 288 288 286 286 286
307 307 306 306 306 306 307 307 307 306 306 306 307 307 307 306 305 305 305 306 306 306 307 308 307 307 310 309 306 305 305 305 304 304 305 305 305 305 305 304 303 304 304 305 305 307 308 307 308 310 313 316 311 306 308 314 313 311 312 310 311 318 311 302 303 302 301 302 300 301 305 309 306 301 297 294 292 291 291 290 289 289 288 288 288 287 286 286
306 305 305 305 306 307 307 307 307 306 305 306 306 307 306 306 306 305 305 305 306 306 307 308 307 306 309 308 305 304 305 304 304 305 305 305 305 305 304 304 304 304 305 306 305 306 308 307 309 309 309 313 308 306 316 318 314 311 307 312 312 308 313 309 305 305 301 301 302 300 305 309 307 301 296 293 291 291 292 291 289 289 288 287 287 287 287 286
305 305 305 306 306 307 307 307 307 307 306 306 306 306 306 306 306 305 305 305 306 307 308 309 307 307 309 306 304 305 305 304 304 304 305 305 305 305 304 304 304 305 306 306 305 306 306 306 309 310 306 308 311 314 319 315 316 315 306 316 314 304 317 315 304 306 303 301 302 301 304 307 305 302 297 293 291 291 292 291 289 288 287 287 287 287 287 286
305 305 306 306 306 307 306 306 307 307 307 306 306 307 306 306 305 306 306 306 308 308 309 310 307 307 310 306 303 305 304 304 304 304 305 305 305 306 305 305 305 305 306 304 306 305 304 306 305 306 307 310 318 322 317 313 317 316 308 314 313 305 314 313 305 306 304 302 302 302 305 306 305 301 296 293 291 292 293 291 289 288 288 287 287 286 286 286
305 305 305 306 306 306 306 306 306 306 307 307 307 306 307 307 305 306 307 307 309 308 307 308 306 307 308 304 304 305 304 303 304 304 305 305 305 307 305 305 306 305 307 305 306 305 304 307 303 304 310 310 316 320 314 314 317 315 310 312 312 308 309 310 310 306 302 303 302 303 304 303 305 301 296 294 292 292 293 292 290 288 287 287 286 286 286 286
305 305 305 306 306 306 306 306 306 307 307 307 306 306 308 308 305 306 307 306 308 309 309 306 307 310 308 304 304 304 303 303 304 305 305 305 306 308 307 306 304 304 312 310 306 307 305 308 308 310 315 310 314 321 316 313 310 308 310 312 311 309 308 310 311 306 302 303 302 303 303 303 305 300 296 295 292 293 293 292 290 288 287 287 286 286 286 286
306 306 305 305 305 306 306 306 306 306 306 306 306 306 309 311 309 308 306 306 309 309 309 308 307 310 308 304 303 303 304 303 305 305 305 306 306 307 307 307 307 308 316 314 308 309 309 315 319 317 316 309 309 315 312 308 305 305 307 308 309 310 309 309 311 308 302 302 304 303 303 305 306 301 297 296 293 293 293 292 290 288 287 287 286 286 286 286
307 307 306 306 305 306 306 305 306 306 306 307 307 307 313 316 315 313 310 308 309 305 306 309 306 306 306 303 303 304 304 303 305 305 305 306 305 308 306 308 317 316 315 314 307 305 309 320 321 316 317 310 307 308 306 305 304 305 308 308 308 308 309 308 308 308 303 303 308 306 304 305 306 303 298 295 294 293 293 293 291 289 287 287 286 286 286 286
308 307 307 306 305 306 306 306 306 306 308 308 308 310 316 317 312 310 309 306 305 303 304 307 303 303 303 302 303 302 303 304 304 304 305 305 305 307 307 310 322 317 312 313 307 307 314 317 311 312 316 309 306 308 304 304 305 305 307 308 309 308 310 307 302 305 304 302 307 306 303 303 303 303 298 295 295 294 294 293 292 290 288 287 287 286 286 286
307 307 307 306 306 307 307 307 307 308 310 310 310 312 313 312 309 307 308 308 305 303 304 304 302 305 303 302 303 301 305 307 306 305 304 306 307 308 311 317 321 314 312 315 311 313 318 312 306 308 310 306 307 309 306 307 307 307 307 306 310 309 309 307 302 304 304 301 306 307 303 302 302 301 297 295 295 295 294 293 292 291 289 288 287 287 287 286
308 308 307 307 307 307 307 307 307 309 311 310 310 310 308 309 308 307 308 310 308 304 306 307 305 307 305 304 303 303 307 307 306 307 304 307 310 310 316 322 320 315 314 316 313 313 311 307 307 306 305 306 307 309 311 310 309 310 308 308 311 306 304 308 306 304 304 300 303 305 302 302 302 300 296 293 294 295 294 293 292 290 290 289 288 287 287 287
307 307 307 308 307 308 309 307 307 308 309 309 309 309 309 309 309 309 310 311 310 307 305 305 305 306 306 304 303 305 308 305 305 307 304 307 309 309 313 316 318 316 310 311 313 313 306 302 306 307 307 308 305 308 312 309 309 312 310 309 309 305 302 306 304 302 304 302 300 301 304 307 306 305 302 296 293 294 293 293 292 290 289 289 288 288 287 287
307 307 307 307 307 308 309 309 307 307 308 309 308 307 307 308 307 309 314 313 312 312 306 304 304 304 303 304 304 304 306 306 306 304 303 304 307 309 309 308 313 312 305 305 310 311 304 299 302 308 311 310 306 306 307 305 307 311 310 308 305 303 302 303 302 301 305 306 300 300 308 313 309 309 307 298 293 294 292 292 293 291 289 288 288 288 287 287
306 307 307 305 306 307 309 311 308 306 308 307 307 307 306 310 311 308 316 319 316 316 309 304 305 304 303 305 305 304 307 308 304 303 303 302 304 307 306 306 308 308 308 307 307 308 305 302 303 308 311 311 308 304 302 303 306 305 306 307 305 302 301 301 301 302 307 308 300 299 306 311 309 310 307 298 295 296 294 293 293 292 291 289 288 288 288 287
305 306 305 306 306 305 309 311 309 308 309 306 306 307 306 310 311 307 313 317 312 311 309 306 305 305 305 304 304 306 307 306 304 303 303 302 303 304 307 309 306 307 309 307 308 308 304 304 306 308 311 311 307 303 302 304 306 306 304 304 303 301 301 302 300 302 306 305 302 301 302 305 308 308 300 295 299 300 298 297 294 291 291 290 289 289 288 288
305 305 305 306 305 305 307 309 309 309 311 310 306 306 308 307 308 310 313 310 306 307 307 308 305 304 307 305 303 308 307 305 306 304 302 301 302 306 312 310 307 309 306 306 314 310 301 304 305 306 308 307 303 302 303 302 304 307 303 300 301 300 301 301 300 303 302 302 308 305 299 303 310 307 298 294 299 303 304 304 301 297 293 291 290 289 289 289
304 304 305 305 305 305 307 308 309 310 311 310 305 306 308 304 308 316 314 307 307 308 307 306 304 305 310 308 306 310 308 305 308 305 303 302 300 307 312 308 309 310 303 306 318 311 301 302 303 303 304 303 302 302 303 303 302 304 301 300 302 301 302 301 302 306 304 305 312 305 298 303 308 308 303 298 301 306 308 308 306 302 296 292 291 290 289 289
304 305 304 305 307 306 308 308 308 309 309 307 306 308 307 308 321 324 312 308 307 307 308 306 305 308 311 309 307 309 307 308 310 307 306 305 303 306 304 304 310 310 307 309 312 308 303 301 302 304 302 301 301 301 302 302 303 303 301 303 305 302 301 302 303 305 305 312 315 304 299 302 306 310 308 304 309 313 310 307 305 303 300 297 293 290 290 289
304 305 304 305 307 307 309 308 306 307 307 306 306 307 308 315 328 324 308 307 307 307 310 308 308 312 313 308 305 309 310 309 308 309 310 309 310 312 306 307 312 313 320 319 309 305 304 302 304 305 303 301 300 300 300 299 301 304 305 304 307 306 302 305 309 307 308 317 314 302 299 301 304 309 309 308 311 309 305 305 305 304 305 302 296 291 290 289
304 305 304 304 305 306 309 308 306 305 306 307 306 311 319 318 320 319 310 308 308 308 309 306 307 311 310 307 304 306 308 307 307 310 310 309 311 309 306 309 309 311 323 319 309 310 309 306 305 302 301 300 301 303 304 303 303 307 308 308 313 315 310 313 317 311 311 314 305 300 302 301 302 305 306 307 307 304 302 302 303 303 303 302 300 295 290 289
304 306 304 304 305 306 307 306 306 306 307 309 309 319 329 320 315 316 313 310 306 306 306 305 306 308 308 308 305 303 304 304 306 307 305 307 311 305 300 302 303 306 312 309 306 312 314 310 304 302 302 299 299 303 305 306 304 305 307 309 315 315 311 316 316 307 309 311 301 297 300 302 305 306 306 307 305 304 302 300 300 300 299 299 299 296 291 289
305 307 305 304 304 304 305 305 306 307 307 309 314 318 317 316 316 311 310 313 307 306 309 307 307 307 306 307 305 303 306 305 304 307 307 308 312 308 302 300 300 305 310 307 304 307 312 312 305 303 303 299 298 300 301 302 302 302 301 303 309 311 309 313 314 310 310 309 301 297 301 307 312 310 307 307 306 303 300 298 296 295 294 293 293 293 292 291
305 307 306 305 303 304 305 304 306 307 307 316 324 318 313 318 317 310 312 314 308 308 310 306 308 309 309 311 306 301 303 305 303 306 309 307 307 309 306 302 301 304 309 309 306 304 307 309 305 300 299 298 299 299 298 301 301 300 299 300 305 309 309 308 308 305 302 303 304 303 305 309 308 306 303 302 302 300 297 296 296 298 296 291 292 293 292 291
305 307 308 305 302 304 304 304 307 306 310 325 324 316 322 323 311 308 313 308 305 308 308 307 311 311 312 313 309 302 300 302 304 304 306 306 305 306 306 304 302 302 306 307 307 305 307 309 304 300 298 297 298 298 298 302 303 300 300 304 301 300 306 307 302 299 297 303 307 304 306 306 303 309 309 303 303 303 301 300 300 301 297 292 293 293 291 291
306 308 308 303 302 305 304 305 307 306 315 325 317 315 323 315 304 309 311 304 303 306 305 308 310 308 311 311 310 308 302 302 305 305 305 306 305 306 307 305 300 300 302 303 304 303 306 310 306 300 300 298 296 298 298 299 302 302 302 304 299 296 304 305 302 305 304 307 307 302 306 308 303 309 312 307 307 308 308 307 303 299 296 294 294 293 292 291
308 310 307 302 302 304 305 306 306 310 321 320 313 315 315 307 304 306 308 304 303 305 305 307 306 304 309 310 309 306 302 306 310 307 306 306 304 306 308 305 300 299 298 299 303 303 302 310 308 299 299 300 297 299 301 297 296 300 300 299 298 301 308 305 302 308 308 307 308 304 303 306 304 308 312 310 309 309 308 306 304 304 302 298 296 293 292 291
309 312 310 303 302 305 306 305 306 315 321 316 318 317 307 307 307 304 305 304 303 305 306 306 304 303 306 308 309 305 302 306 309 306 306 306 304 303 303 304 302 300 299 299 303 304 301 306 308 300 297 299 299 300 306 302 297 298 299 298 299 302 307 305 301 305 307 307 309 307 305 307 309 311 313 310 307 306 305 304 305 306 304 300 297 295 293 292
306 311 313 304 303 308 306 305 314 323 317 310 318 316 305 307 308 302 303 303 302 303 304 305 305 304 306 306 305 304 302 305 306 305 306 305 305 303 300 302 303 301 300 299 300 303 302 302 308 305 299 300 302 302 305 306 302 301 301 301 301 299 300 301 299 301 306 307 308 307 308 309 306 307 309 306 305 305 304 304 304 304 301 299 297 295 293 292
306 314 316 305 302 307 307 309 316 320 317 309 311 310 306 307 306 303 302 302 303 302 300 304 306 305 308 305 302 303 304 307 306 305 307 305 304 304 300 301 303 300 300 300 300 302 302 301 307 309 304 304 306 301 298 301 303 304 306 307 306 303 302 303 303 300 300 303 306 306 306 305 303 305 306 304 305 306 305 304 303 301 300 298 296 294 292 292
312 317 312 305 302 304 309 313 309 307 317 311 305 305 306 305 303 302 302 300 302 302 300 303 306 307 309 305 303 304 305 307 306 305 307 305 303 305 301 298 301 300 300 302 301 300 301 302 305 307 304 304 302 296 294 297 298 300 302 303 304 305 306 307 309 305 300 299 300 300 302 303 303 305 306 304 305 305 303 301 300 299 297 296 295 293 291 291
318 315 307 304 305 305 309 312 307 309 315 307 300 302 303 304 303 302 302 301 301 302 304 306 305 305 306 303 303 304 303 306 308 306 307 308 304 302 298 298 300 300 301 302 300 298 301 303 304 306 307 303 299 295 294 295 295 297 299 298 300 303 305 306 307 304 302 301 299 299 303 304 302 304 305 303 302 301 299 297 297 297 295 295 295 293 291 290
319 311 307 306 304 305 309 311 310 314 315 305 301 302 301 302 303 302 304 305 303 302 306 308 303 301 303 303 304 304 302 304 307 304 304 307 303 297 295 298 299 300 300 301 300 299 301 305 304 306 309 308 308 307 303 300 297 297 301 299 299 301 301 299 298 297 300 303 302 303 306 303 302 303 302 301 300 299 299 298 296 296 295 295 294 293 292 290
312 306 309 309 304 304 308 313 319 322 316 308 304 303 302 302 301 302 305 306 303 302 305 305 301 301 303 303 303 304 302 303 304 302 301 302 301 297 296 297 298 301 301 299 299 299 301 304 303 304 307 308 311 313 310 309 303 299 301 299 297 298 299 299 300 299 301 301 299 303 306 302 301 302 301 300 300 299 300 299 298 297 296 296 295 293 292 290
305 306 313 315 311 308 306 306 315 322 318 312 305 303 304 303 301 301 302 303 302 301 302 302 300 302 303 302 304 306 304 302 301 301 302 303 302 299 296 297 298 300 300 298 298 299 301 302 300 303 307 306 307 306 304 304 303 301 301 300 298 297 296 299 303 302 302 301 299 300 302 300 300 300 299 300 300 299 299 299 299 298 297 297 295 294 293 291
305 307 311 310 311 313 309 307 312 314 310 308 303 302 304 305 302 299 299 301 302 301 301 301 300 302 303 303 305 308 306 303 301 301 302 303 302 297 294 296 297 298 298 296 296 299 301 301 300 302 303 303 303 302 299 298 299 299 300 300 300 297 295 298 301 300 301 302 301 300 300 300 300 299 299 300 299 299 299 298 298 297 296 296 295 294 294 292
304 306 304 301 305 309 305 305 311 312 306 304 303 302 305 307 306 304 301 299 300 301 301 301 303 304 306 306 305 307 306 304 304 304 303 302 301 297 295 296 295 294 295 295 295 299 301 302 301 300 301 302 299 298 298 298 297 298 299 299 299 298 296 297 298 298 299 300 301 300 300 300 299 299 299 299 298 298 298 297 296 296 295 295 295 295 294 293
304 306 302 299 304 308 304 303 308 312 308 306 305 303 305 310 310 307 302 300 302 301 299 303 308 307 307 306 304 305 308 306 304 305 304 302 301 300 301 300 296 292 293 294 295 296 300 304 301 298 300 301 299 297 298 297 298 299 298 298 297 298 298 297 297 297 297 297 298 298 298 298 297 297 297 297 297 297 296 296 296 296 296 296 296 296 295 294
306 307 304 303 305 306 304 304 306 307 304 303 304 303 305 311 312 307 302 302 304 303 299 303 309 309 307 306 304 306 310 308 302 302 304 303 300 302 305 304 301 296 294 296 295 293 296 303 302 298 300 301 300 300 299 298 299 299 298 297 297 297 297 296 295 295 295 296 296 295 296 296 296 296 297 297 297 296 296 297 297 297 297 297 297 296 295 294
304 303 304 309 308 303 304 306 305 306 305 304 304 304 305 311 312 307 304 303 304 305 304 305 309 309 304 303 305 307 308 307 305 302 303 303 302 302 301 300 303 303 298 295 296 295 295 300 301 299 301 302 300 300 300 299 299 301 302 302 300 299 300 298 296 294 296 298 297 296 297 298 298 298 298 298 298 298 297 297 297 297 297 297 296 296 295 295
301 300 303 308 307 304 304 305 302 303 308 310 307 304 305 309 308 305 304 305 303 304 304 305 308 307 305 307 308 306 304 303 302 300 299 300 301 301 299 298 302 306 302 297 296 295 294 298 300 298 302 305 301 298 298 298 303 308 306 304 303 302 302 302 299 296 296 296 299 300 301 300 299 298 298 297 297 297 297 296 296 296 295 295 296 295 294 294
Wind_Speed
8 7 5 4 3 3 3 4 5 5 6 6 4 1 2 3 3 1 1 2 3 4 3 1 1 1 2 2 4 5 6 11 17 24 19 13 18 18 16 14 12 14 13 12 10 8 8 9 11 16 12 5 5 4 3 4 3 5 4 4 3 3 3 4 6 5 3 2 2 3 3 10 5 3 2 5 8 5 5 6 5 9 11 9 13 24 29 24
7 6 5 4 3 2 3 3 4 4 5 5 5 3 1 2 3 2 1 2 2 3 1 2 2 3 3 1 3 4 3 6 16 21 18 17 18 16 14 12 11 13 13 11 11 9 7 6 9 12 8 3 4 4 3 3 4 4 3 4 2 5 3 4 5 5 3 3 3 2 4 6 6 5 3 3 1 3 6 4 5 8 8 11 17 24 23 21
6 6 5 4 3 2 2 3 3 2 3 4 4 3 2 1 2 1 1 1 2 4 4 0 2 4 4 4 4 4 4 4 10 12 17 19 16 14 13 10 11 12 11 10 10 8 3 2 5 6 5 4 3 3 4 4 3 2 4 4 4 5 2 3 4 4 4 5 6 3 4 3 1 3 2 5 4 0 3 3 1 3 4 6 11 18 19 18
5 5 4 4 3 2 2 2 2 1 2 2 2 2 2 1 1 1 2 3 3 2 5 2 1 3 5 6 6 6 4 5 5 9 17 18 14 14 12 10 11 11 10 9 8 6 3 2 3 4 4 3 4 3 4 3 2 2 3 3 5 4 3 3 5 5 3 4 7 4 4 4 2 2 3 8 6 2 5 7 6 9 11 9 10 14 17 17
5 5 4 4 3 2 2 1 1 1 1 1 1 1 1 2 2 2 3 4 3 2 4 3 3 3 4 6 6 5 2 4 4 11 18 16 14 13 10 11 12 11 10 8 5 4 4 4 5 6 5 2 5 5 3 4 3 4 2 3 6 5 4 4 5 5 3 5 6 5 4 4 2 3 3 7 4 4 5 7 8 10 13 13 13 15 15 16
5 5 4 4 3 2 2 1 1 2 2 1 0 1 3 3 3 3 5 6 4 3 4 3 3 2 5 8 3 1 4 2 6 13 17 14 13 12 9 10 11 11 9 3 2 4 5 5 6 4 4 3 3 3 2 5 4 4 2 0 4 4 5 5 3 2 4 7 6 5 3 3 4 3 3 4 4 5 5 4 6 9 13 15 16 16 14 14
6 5 4 3 3 2 2 1 2 3 2 1 1 2 3 4 3 0 3 5 4 3 4 3 2 2 2 7 7 6 6 1 9 14 15 14 12 11 9 8 9 8 4 2 3 4 5 7 6 3 4 3 0 2 2 5 6 6 2 0 2 4 4 4 2 2 6 7 4 4 5 4 5 5 2 1 2 4 4 5 13 14 15 16 14 13 13 14
6 5 4 3 3 2 2 1 2 3 3 2 1 2 6 9 9 5 3 2 2 1 5 4 3 4 3 2 3 6 4 3 11 14 13 12 10 11 8 5 7 7 7 9 4 5 5 6 4 4 4 2 3 3 2 5 7 5 3 2 2 3 1 3 5 5 7 6 4 6 5 1 4 4 3 1 2 3 3 10 15 15 13 12 10 10 13 13
5 4 4 4 3 3 2 1 1 3 3 2 2 4 5 7 8 7 4 4 3 4 8 7 3 7 6 2 4 4 3 5 11 13 13 11 9 9 7 5 8 10 14 14 9 6 4 3 4 4 4 2 4 3 2 4 1 2 4 3 3 3 1 4 5 6 6 3 4 7 4 1 2 2 2 1 1 2 4 8 9 11 9 7 7 10 13 13
3 4 4 4 3 3 2 2 2 3 3 3 3 4 3 3 5 5 4 4 4 4 8 10 3 4 6 2 6 4 3 6 11 13 12 9 7 6 7 10 10 11 13 14 15 10 4 4 4 5 6 3 4 2 2 4 2 3 6 5 5 2 1 3 4 4 3 1 3 6 3 4 2 2 2 4 4 4 5 7 5 7 7 7 6 9 12 13
3 5 5 5 3 3 2 3 3 3 3 3 3 2 1 2 3 3 3 4 4 4 6 8 7 5 6 5 6 3 3 7 12 14 11 8 6 6 9 11 10 11 12 12 13 10 4 4 6 5 4 2 3 3 3 2 3 3 5 5 5 5 2 5 6 4 1 1 3 7 5 4 3 1 5 6 7 6 7 7 5 6 6 6 6 8 10 13
5 6 6 5 4 3 2 3 3 2 2 2 2 2 1 1 1 2 2 2 2 4 3 5 5 2 8 11 5 2 4 7 12 13 9 6 6 7 8 8 9 10 11 13 11 9 6 5 9 6 1 4 3 2 3 2 3 3 5 4 5 8 4 1 3 3 2 2 4 7 2 4 4 5 5 6 8 6 6 7 6 6 6 6 6 6 9 12
7 7 6 4 2 1 2 3 3 3 3 3 1 2 1 1 0 1 1 1 0 2 2 4 6 2 3 5 1 2 5 7 12 10 5 4 4 6 6 5 8 10 12 14 12 11 7 7 12 9 2 6 3 0 3 5 4 1 4 4 1 7 4 4 1 0 1 3 6 4 2 6 6 6 3 6 8 7 7 7 6 6 5 5 6 5 7 12
7 6 4 2 1 3 4 4 4 4 5 4 2 1 0 1 1 0 0 1 2 4 5 3 5 3 4 1 2 2 5 7 12 11 7 5 3 4 5 5 7 10 12 13 13 12 9 10 14 10 3 5 2 2 5 6 4 1 2 2 2 2 5 5 2 0 2 1 3 4 3 6 7 6 6 6 8 10 9 8 7 6 6 5 6 6 6 11
6 5 3 3 3 3 4 3 3 3 4 4 4 3 2 3 2 1 1 1 2 4 4 1 2 3 5 1 2 2 5 7 13 14 10 7 5 4 4 6 8 10 12 11 11 12 10 10 12 6 1 3 4 5 5 4 4 3 0 3 3 1 5 7 4 1 3 0 2 5 4 7 7 7 8 7 7 9 9 8 8 7 7 7 6 6 6 9
5 5 5 5 4 3 2 2 2 2 4 5 6 6 6 5 2 1 0 1 2 3 2 1 2 3 5 1 2 2 5 6 11 13 8 6 7 5 3 5 6 8 10 11 9 10 12 11 7 3 2 4 6 6 4 4 4 4 1 2 3 1 4 6 3 2 4 1 1 2 4 6 5 6 7 8 9 9 8 9 9 8 8 8 6 7 6 7
5 5 5 5 4 4 4 3 3 5 6 6 5 7 8 7 4 1 3 1 4 4 3 2 4 4 3 2 2 3 5 7 10 12 6 5 7 6 4 3 4 5 8 10 9 8 11 9 2 1 4 4 3 4 3 2 3 3 2 1 3 2 2 4 4 4 5 1 3 1 4 8 7 4 6 9 10 9 9 10 9 9 8 7 7 7 7 7
3 3 3 3 2 3 4 5 5 6 5 1 6 7 5 7 7 3 3 2 4 3 4 4 6 3 1 4 2 5 9 8 10 11 7 4 6 7 6 3 3 3 4 7 10 8 6 5 2 2 4 4 4 5 3 4 3 2 2 1 3 2 3 4 4 3 4 2 4 3 5 10 9 5 7 9 9 10 11 10 8 9 9 8 8 7 8 9
1 1 0 1 1 1 1 2 1 1 4 7 9 6 3 2 6 6 6 6 2 1 0 3 3 2 3 4 4 8 8 5 7 11 9 6 4 5 7 6 4 4 4 3 6 6 3 4 5 4 2 3 2 3 5 5 4 3 3 3 3 4 4 5 5 4 1 3 7 7 7 8 7 6 8 8 9 10 11 8 7 8 8 8 8 8 9 9
1 1 0 0 2 3 3 4 6 7 8 8 6 4 2 1 4 5 8 9 2 2 1 2 1 1 2 3 6 9 5 1 5 12 14 8 3 2 5 7 6 6 5 1 3 4 3 5 3 2 4 4 4 4 4 3 3 3 3 2 4 3 5 6 5 5 1 2 7 6 5 8 7 9 10 8 7 9 10 9 9 9 8 8 9 10 11 11
2 2 0 1 3 4 5 6 7 7 7 5 3 1 1 2 2 1 2 4 1 1 0 2 3 1 2 3 7 8 1 0 5 13 17 10 3 1 3 5 6 5 3 1 2 3 5 6 2 6 7 5 2 3 3 2 3 3 3 2 3 3 6 6 3 5 3 3 5 3 6 10 9 10 9 7 8 11 13 12 12 11 9 9 10 12 12 10
3 2 1 1 2 3 4 4 5 5 5 4 2 5 4 4 5 4 3 2 2 1 2 2 1 2 3 2 6 6 2 3 6 12 17 12 5 1 2 5 6 2 3 3 2 5 5 2 6 7 5 5 4 4 3 3 5 3 2 1 3 3 5 6 3 4 4 2 6 6 9 12 8 7 8 8 10 10 10 12 11 10 10 10 11 12 10 10
3 3 2 1 1 2 4 4 4 4 4 3 7 9 7 7 7 3 3 3 1 2 2 2 2 3 5 3 6 7 5 4 3 8 16 12 4 2 3 5 5 2 5 4 2 2 1 3 6 4 6 6 2 4 5 4 3 2 3 2 3 3 1 4 4 5 4 2 4 6 8 11 7 3 5 7 8 6 5 8 8 8 11 12 11 10 10 12
3 3 3 2 2 3 4 5 5 5 6 7 10 10 8 7 5 3 3 3 0 1 1 0 1 0 1 2 7 5 3 2 1 6 14 9 2 2 4 4 4 4 4 2 5 5 2 4 2 5 4 5 3 3 5 5 3 2 4 4 3 3 3 6 4 6 6 2 2 4 6 7 5 4 5 4 3 6 5 6 9 9 10 9 8 10 12 12
4 4 4 4 4 4 3 3 4 5 7 8 9 8 6 4 2 2 3 3 1 3 2 1 1 0 2 3 7 2 2 2 0 4 9 7 2 1 2 2 4 3 2 0 5 4 1 2 2 4 5 5 3 1 1 3 2 4 4 6 6 5 6 6 5 6 5 3 1 1 3 5 5 4 7 3 3 8 4 5 12 11 9 8 10 12 12 11
4 4 5 5 4 4 3 2 2 4 5 4 5 5 4 4 2 3 4 4 2 4 3 0 0 2 2 4 6 1 3 2 3 3 6 6 2 2 3 1 3 3 5 2 3 2 1 2 2 4 4 6 4 1 3 4 4 2 3 5 5 3 5 5 3 1 1 3 2 2 2 4 6 5 6 3 5 9 6 8 13 11 9 9 11 12 11 10
6 5 6 6 5 4 3 1 2 3 2 2 4 4 3 4 3 3 3 4 2 2 1 1 0 3 1 3 4 2 1 4 3 4 6 6 4 3 3 2 1 2 2 2 1 1 2 2 4 4 5 5 3 1 4 6 5 3 2 4 2 4 6 5 4 4 3 3 3 2 3 3 6 5 4 3 5 9 8 10 12 11 12 12 12 13 12 12
7 7 7 7 6 4 2 1 4 3 1 3 6 3 2 2 0 1 4 2 2 0 1 1 1 2 2 2 4 3 1 3 2 2 5 7 4 3 3 2 5 3 1 3 2 4 0 0 0 3 4 2 1 3 6 7 3 5 4 2 3 4 4 3 5 4 1 3 4 3 2 1 6 6 3 4 4 8 10 11 11 11 12 12 13 13 13 12
8 8 8 7 6 3 1 2 2 2 1 4 6 2 1 0 1 3 4 1 2 1 1 1 1 2 4 4 5 4 2 2 2 4 6 7 5 5 4 3 6 5 2 4 3 4 0 2 3 4 3 2 4 3 6 7 3 4 2 1 1 2 2 3 4 3 2 3 4 4 2 0 5 6 3 2 2 7 9 9 9 10 9 9 11 12 12 11
9 8 8 7 4 1 0 1 0 2 2 5 5 2 0 2 4 6 2 2 1 1 0 1 1 2 5 4 4 5 4 2 3 4 4 3 5 7 4 2 6 6 2 4 2 3 1 1 2 3 2 3 2 2 4 6 4 4 4 2 2 3 3 3 2 3 3 2 6 5 1 2 3 6 4 3 4 6 7 6 7 8 8 9 9 10 10 10
9 9 9 7 3 1 1 1 1 3 4 4 4 1 2 3 5 5 2 4 1 2 1 2 2 4 6 3 1 4 4 4 5 4 4 3 5 7 4 1 3 4 3 4 1 3 4 1 1 2 1 2 2 1 1 2 1 3 4 3 3 3 3 3 4 3 2 4 5 3 2 1 2 6 5 5 7 6 6 7 9 9 9 9 8 8 9 9
9 9 9 9 6 4 2 3 3 4 4 4 3 3 4 2 1 2 3 3 1 2 1 1 2 3 4 2 1 3 3 3 4 4 2 2 4 4 2 1 1 2 3 2 2 4 3 3 3 3 1 2 2 2 3 3 4 4 3 4 4 4 4 3 3 1 2 5 3 2 2 1 6 9 9 10 11 9 8 9 9 10 10 9 8 8 8 7
9 8 8 9 7 5 5 5 4 4 4 4 3 5 6 4 2 3 2 2 1 2 1 1 2 1 1 2 2 3 1 1 3 4 1 1 4 2 2 1 2 2 1 2 1 4 3 4 2 1 1 1 3 2 2 2 3 3 2 3 2 2 4 3 3 3 4 5 3 1 2 3 5 7 9 12 12 9 7 8 9 9 10 9 8 7 6 6
8 6 6 8 7 5 4 4 4 4 3 4 4 5 5 1 4 3 2 3 2 2 2 2 2 2 2 1 2 2 1 1 2 3 2 2 3 1 2 2 1 3 3 1 0 1 1 4 2 2 1 1 2 3 3 3 1 1 3 3 2 3 1 3 3 2 5 5 4 2 1 3 3 4 7 9 8 6 5 7 6 8 9 7 6 6 6 7
7 5 4 6 7 5 3 2 3 3 3 4 6 5 3 3 4 2 3 4 1 2 1 1 3 3 3 2 2 1 0 1 2 2 3 2 1 2 2 2 1 3 3 1 2 1 1 5 3 1 1 2 1 2 3 4 2 0 2 3 1 3 4 1 3 4 2 4 4 2 3 5 4 8 8 3 5 7 6 6 5 8 9 5 6 9 8 8
6 4 3 5 7 5 2 2 3 2 3 5 6 2 4 4 2 3 3 1 1 2 1 2 3 2 3 4 3 3 1 1 2 2 1 1 2 3 2 3 2 2 4 3 2 1 0 4 4 3 1 2 1 2 1 2 1 1 1 2 3 3 5 3 1 1 3 1 4 2 4 5 4 8 8 5 5 7 6 5 6 9 8 5 7 10 9 9
5 2 2 5 7 4 2 1 3 3 3 6 4 3 5 3 1 3 2 1 0 2 3 0 1 0 1 2 3 3 2 2 2 2 1 2 1 3 3 2 1 2 2 3 2 2 1 4 5 1 1 1 0 2 2 2 2 3 1 3 2 2 4 4 1 3 4 2 5 1 4 6 4 4 7 6 6 8 8 7 7 8 8 7 10 11 10 10
4 1 2 5 7 3 1 1 3 3 5 5 1 4 3 1 0 1 1 1 0 2 4 2 2 0 1 1 3 2 1 2 2 2 1 2 1 3 4 2 1 0 1 2 1 0 2 2 6 1 1 3 3 2 2 3 2 3 2 2 2 1 1 1 1 1 2 3 5 4 4 4 4 5 5 5 6 8 8 7 7 9 9 9 10 11 11 10
4 1 1 6 7 3 1 1 2 4 5 2 3 3 1 1 1 0 1 1 1 2 1 2 1 1 2 3 2 2 0 2 1 1 1 1 1 1 3 2 2 0 1 2 2 1 2 1 4 2 2 3 3 1 2 1 2 3 1 1 2 2 3 1 1 2 1 2 4 4 4 3 7 7 5 7 9 8 9 8 8 10 10 9 9 9 9 8
2 1 1 5 6 3 1 1 3 5 4 2 4 2 1 1 1 1 1 1 1 1 1 2 1 1 2 3 2 1 1 1 2 1 2 2 2 1 1 1 3 2 1 2 2 0 2 2 3 4 3 1 1 3 5 5 3 2 0 1 1 0 2 1 1 3 3 2 3 3 4 7 7 4 6 9 10 9 9 8 9 10 9 9 9 9 8 8
2 2 3 6 4 0 2 5 4 3 3 1 2 2 1 0 1 2 2 1 0 0 1 3 3 2 3 2 2 1 1 1 2 2 2 2 1 1 1 1 3 3 2 2 1 1 1 2 3 3 3 2 4 4 4 5 5 5 4 4 4 3 3 0 3 1 2 2 4 2 5 11 7 3 6 8 8 8 8 8 9 10 10 10 9 9 9 8
4 1 3 5 3 1 3 4 1 2 3 1 1 1 0 1 1 1 2 1 1 0 1 2 2 2 3 1 1 2 2 1 2 2 2 3 3 2 1 2 1 2 3 2 2 2 2 3 1 4 5 5 5 2 2 4 4 4 3 3 3 4 5 4 3 3 1 1 2 3 2 10 5 4 5 6 6 7 7 6 8 10 10 10 10 10 9 9
3 2 2 6 4 1 5 3 2 3 1 2 1 1 0 1 1 0 1 1 0 0 1 0 2 1 1 1 1 2 2 2 3 3 3 3 2 1 1 2 1 1 3 1 2 1 2 2 0 4 5 3 3 3 2 1 2 1 2 2 4 3 3 5 5 3 2 3 2 2 4 10 5 1 3 4 3 6 7 7 9 10 10 10 11 11 9 9
2 2 1 5 5 1 3 1 1 1 2 2 2 1 1 1 2 1 1 2 1 2 1 1 2 0 0 1 2 2 3 1 2 2 1 2 2 1 2 2 1 1 1 2 2 0 1 1 1 3 6 6 6 5 4 3 0 3 4 2 3 4 6 3 2 2 1 5 7 4 7 10 4 3 3 4 6 8 10 9 8 8 10 11 10 10 9 9
1 1 2 4 5 4 2 3 4 3 1 0 1 2 1 0 1 2 2 2 1 2 1 1 1 1 1 2 2 0 1 1 2 1 1 1 3 2 2 2 1 1 2 2 0 0 2 2 2 1 3 4 5 5 3 3 1 2 2 3 4 5 7 3 1 3 3 5 6 6 9 11 9 10 12 11 10 12 15 13 9 8 9 10 10 10 8 8
1 0 2 5 5 6 2 1 4 4 3 3 0 1 1 1 1 1 1 2 1 2 1 1 0 1 2 1 0 2 2 1 0 1 1 3 3 2 0 0 1 1 2 1 2 2 1 1 3 5 6 7 8 7 2 2 1 5 5 5 6 5 6 5 3 3 5 2 3 9 12 14 18 19 17 14 13 15 16 15 14 11 10 11 11 10 9 9
1 1 0 1 3 3 4 3 4 3 2 3 1 1 1 1 2 1 0 1 0 1 1 0 1 2 2 2 1 2 2 0 1 1 3 3 3 2 1 1 1 1 2 0 1 3 3 3 5 7 9 12 12 10 2 1 5 9 10 7 7 7 6 7 7 8 4 3 8 12 8 8 17 19 16 16 16 16 15 16 16 14 12 12 12 11 11 11
0 1 2 1 1 0 2 2 2 4 2 1 1 1 1 1 1 1 1 1 2 0 1 0 2 5 6 5 3 1 1 1 1 3 2 2 2 2 2 0 1 2 2 1 2 3 4 3 4 4 8 12 12 11 7 5 7 9 11 10 7 8 10 12 16 12 7 5 14 14 6 8 15 18 17 18 17 16 16 16 16 14 14 14 14 13 13 13
1 1 0 2 0 2 1 1 2 5 3 1 1 1 2 3 4 4 2 2 2 2 1 2 6 6 6 5 3 2 3 2 2 4 2 2 2 0 1 2 1 2 2 2 1 1 4 3 3 2 6 11 12 10 7 5 7 8 11 11 9 10 14 15 17 13 8 11 18 18 17 17 17 18 19 19 16 13 13 14 15 16 16 16 16 15 14 14
0 2 1 2 2 1 1 2 3 4 2 1 0 2 2 5 5 4 2 3 1 2 2 4 7 5 4 5 5 4 7 6 3 4 4 3 2 3 3 3 2 2 2 2 0 1 1 3 1 3 4 9 7 6 3 4 6 9 14 12 8 10 11 12 12 9 6 11 17 16 15 16 16 15 15 14 12 10 11 14 17 17 16 16 17 16 16 16
1 2 2 4 2 1 1 2 2 3 0 1 2 2 1 4 6 4 2 2 3 4 6 7 5 1 2 4 6 8 8 7 5 6 6 5 3 3 2 2 4 4 1 1 0 0 1 2 2 5 4 6 3 6 6 7 7 10 14 11 4 7 7 7 7 6 7 9 11 9 8 10 11 10 9 10 11 11 13 16 18 19 18 18 17 17 18 17
2 1 2 4 1 2 1 1 2 1 2 2 3 2 1 2 4 3 1 1 2 2 5 7 5 2 2 3 8 9 6 5 6 5 4 3 1 2 1 1 5 6 4 4 1 1 3 1 2 3 2 6 4 5 7 8 7 7 7 3 4 6 5 4 5 7 9 7 4 5 6 9 10 11 13 15 15 14 14 15 17 19 20 20 18 17 17 17
Wind_Direction
15 20 20 15 13 5 25 31 32 45 50 53 64 108 181 187 198 202 258 309 336 326 299 268 208 226 336 10 24 21 35 52 51 46 45 16 360 2 358 354 353 354 357 357 358 8 12 15 9 3 7 27 18 351 15 33 50 56 82 86 104 158 148 168 181 194 157 154 236 355 99 131 148 238 167 49 35 50 41 17 27 38 43 71 110 130 139 146
13 15 13 14 8 360 18 25 32 52 59 59 71 91 157 204 217 215 258 313 3 2 330 231 228 245 277 299 323 355 359 23 41 38 23 6 4 3 0 357 350 349 356 2 3 12 21 360 353 5 25 52 359 349 17 17 57 79 117 86 162 194 158 176 172 187 172 141 162 80 124 137 155 189 141 98 342 34 66 19 11 47 57 82 113 131 139 148
12 12 10 10 360 355 3 10 24 51 61 56 73 89 101 156 210 198 181 115 109 63 56 143 250 255 266 272 287 322 315 360 34 18 2 4 5 4 5 357 347 350 356 3 0 4 22 348 357 18 46 52 357 1 26 16 47 104 111 84 218 203 161 213 177 183 200 148 136 130 136 106 133 176 119 128 153 88 140 167 80 117 143 122 133 141 144 152
9 10 12 6 357 345 332 347 8 34 61 53 66 82 88 74 219 203 178 161 164 49 42 44 325 292 282 284 285 287 311 31 23 340 355 4 4 7 6 356 350 350 353 359 358 359 24 83 67 50 59 39 340 17 36 353 38 93 99 140 197 159 123 204 190 190 208 139 140 142 107 98 99 104 125 133 124 278 232 202 188 181 171 159 161 155 152 155
6 6 9 2 351 330 308 315 315 192 113 54 60 69 12 329 278 239 213 198 214 310 13 26 359 340 335 326 291 267 2 43 334 342 360 4 5 6 9 2 352 345 345 350 356 34 69 99 85 50 55 40 346 26 31 326 62 70 17 165 164 128 130 201 207 195 177 103 116 129 106 125 109 56 140 150 152 232 236 225 205 176 165 162 163 158 155 155
1 359 5 360 343 321 303 300 264 206 181 159 61 347 333 324 286 247 223 220 237 292 339 351 2 44 61 36 25 148 99 102 325 352 1 5 7 6 14 4 353 341 333 340 59 83 80 64 66 49 53 51 3 50 351 324 56 94 11 105 173 154 146 188 225 208 142 111 126 160 140 110 99 92 161 166 206 254 282 232 164 144 155 156 154 155 157 158
355 360 10 1 341 317 298 271 241 221 198 165 28 1 38 49 48 97 205 219 240 284 326 323 345 164 113 48 58 71 88 99 340 355 360 8 9 5 13 360 360 349 323 90 91 105 83 53 75 113 82 69 120 94 359 341 45 92 125 272 176 153 142 165 155 74 102 115 154 154 114 113 144 156 127 102 257 306 338 107 120 126 140 146 148 155 161 162
359 16 32 13 351 328 298 239 226 221 199 161 64 91 94 72 61 66 102 164 197 356 358 331 262 226 242 341 72 50 45 323 345 357 359 10 15 10 7 355 20 41 65 58 60 140 98 61 113 145 87 86 145 109 14 29 38 77 141 200 133 86 103 121 99 94 92 97 112 88 76 149 185 159 93 8 327 5 66 102 112 122 130 141 151 158 162 163
15 34 40 16 350 331 315 289 233 216 211 185 137 143 123 69 53 56 74 107 101 54 18 7 269 227 236 256 90 55 332 329 354 358 359 9 19 13 17 38 46 58 65 53 52 100 102 105 186 172 142 163 109 90 4 64 41 160 131 157 113 69 149 120 85 102 103 103 105 76 39 270 189 66 43 212 130 82 108 101 112 125 131 151 159 169 170 168
34 18 11 358 341 330 311 282 238 217 220 197 161 161 164 42 35 47 79 101 86 55 20 21 21 216 219 225 74 67 316 359 8 359 359 6 14 20 48 56 56 63 66 55 51 62 97 160 190 143 129 132 93 65 16 96 148 139 110 105 83 49 196 118 106 133 122 112 117 105 146 225 261 9 268 206 156 148 122 111 130 137 151 170 170 181 179 177
13 353 351 339 321 304 277 253 233 208 199 187 176 174 192 354 14 37 83 100 78 55 25 34 57 89 107 93 88 84 350 10 10 2 356 359 20 39 54 58 58 61 64 58 50 48 74 150 154 123 106 102 92 39 29 104 110 93 110 97 18 360 57 90 109 162 168 103 132 123 146 252 301 304 233 190 156 160 141 140 159 156 171 180 180 189 187 191
352 348 343 326 297 281 252 218 197 161 144 147 191 221 302 330 2 36 81 103 68 49 30 34 32 59 75 68 89 78 9 11 5 359 350 355 37 42 49 60 55 56 62 62 50 41 60 139 125 99 83 118 95 30 65 78 77 68 88 105 332 359 34 150 133 191 209 155 162 124 100 263 231 244 242 163 149 150 147 161 176 177 190 190 191 195 196 202
347 344 336 318 289 244 179 171 144 108 90 88 185 236 284 282 50 55 87 117 329 360 329 2 359 298 82 59 95 31 21 12 2 357 0 20 55 44 45 57 53 55 58 63 59 50 71 136 116 99 96 103 99 229 92 43 51 53 53 99 342 6 336 247 153 255 144 153 173 140 314 260 237 252 218 154 149 142 158 184 191 190 199 199 202 206 207 208
350 348 342 343 124 147 158 154 128 92 78 80 90 127 100 346 34 355 220 227 261 290 294 341 27 64 92 80 234 25 11 9 8 11 30 46 80 77 67 69 62 56 52 64 70 63 85 116 102 96 74 85 104 60 45 15 27 55 22 53 48 36 272 278 326 355 118 162 165 129 284 263 264 256 193 173 161 157 179 198 200 201 205 209 209 212 219 215
2 9 36 92 120 140 158 164 147 101 82 77 72 67 11 347 359 337 291 268 287 289 279 298 28 74 77 24 255 351 349 4 13 14 20 36 64 76 75 80 68 55 53 68 78 70 79 93 81 71 2 34 56 57 31 360 19 30 7 310 350 172 268 306 316 161 127 332 95 125 255 273 269 241 194 179 174 176 193 201 204 209 207 211 216 216 225 226
26 55 82 96 104 116 130 159 169 123 94 89 78 50 16 355 320 329 214 149 27 334 268 314 351 77 94 11 304 349 347 353 5 11 16 29 41 32 37 76 58 53 68 72 78 66 55 64 67 51 52 41 53 72 48 17 359 358 71 246 279 217 290 318 329 25 81 40 4 150 235 280 279 239 197 182 184 190 203 211 210 213 214 213 218 219 224 233
58 86 89 77 77 88 85 88 122 129 117 103 66 26 22 21 4 152 162 120 25 18 71 55 11 67 89 355 337 338 328 329 352 8 20 27 31 27 32 66 30 54 84 60 45 34 29 43 71 14 50 51 58 86 66 346 287 312 25 267 264 221 257 304 310 351 43 52 278 243 231 259 275 254 204 193 190 193 209 218 215 214 220 218 219 224 225 228
82 106 79 55 77 93 84 87 105 129 138 44 341 347 22 40 37 92 169 294 318 357 63 35 23 68 27 347 332 305 311 318 349 9 16 22 40 45 48 50 12 29 55 32 28 25 14 24 57 52 30 19 34 77 130 225 225 240 259 262 304 287 239 262 272 305 24 358 260 256 254 258 270 261 218 207 194 200 216 218 218 220 220 221 221 224 225 227
76 145 36 41 135 145 103 96 86 250 270 293 306 320 328 25 37 53 50 32 3 339 285 323 15 128 245 308 312 313 314 321 3 15 14 19 53 61 48 37 27 47 52 20 9 17 25 25 42 66 28 345 10 117 158 189 184 201 220 196 242 281 265 254 259 262 2 331 268 241 245 258 267 246 220 216 201 207 226 226 228 227 222 225 224 227 227 229
27 3 274 246 233 237 281 291 296 297 300 299 294 320 348 22 18 14 29 40 75 168 216 250 217 173 293 305 323 332 327 352 24 20 18 14 21 39 22 20 27 46 57 40 334 1 68 62 54 151 197 229 236 190 148 138 156 150 139 180 239 260 275 268 273 285 345 333 265 228 240 257 253 240 222 208 199 214 230 230 233 230 224 225 224 230 229 230
23 20 346 257 257 268 293 301 309 313 321 326 310 4 138 144 62 333 19 26 306 210 308 249 215 238 298 293 332 344 334 21 9 16 18 11 18 26 335 16 48 40 13 260 297 355 57 78 156 214 203 194 193 163 127 101 121 125 153 204 291 246 261 269 264 293 352 5 278 286 300 271 246 242 229 184 191 216 221 221 230 227 225 228 226 232 232 237
18 13 12 263 272 302 314 319 331 338 345 349 85 103 117 134 121 137 128 85 294 312 2 328 335 314 300 299 341 352 49 27 352 1 7 6 29 55 313 41 82 96 352 360 13 13 41 105 218 222 175 127 84 84 93 114 120 107 136 126 306 265 280 295 302 315 353 351 293 332 325 289 264 246 229 195 203 221 220 221 230 225 225 231 228 232 235 240
11 8 31 15 323 346 352 357 356 12 29 69 113 107 105 114 121 123 89 92 289 329 4 10 39 335 326 1 359 11 64 53 324 333 352 3 35 67 79 68 79 85 11 17 123 115 56 233 227 193 141 132 101 40 67 83 89 107 134 137 278 291 347 289 302 327 321 276 276 319 317 290 295 307 254 220 217 248 254 237 242 230 228 234 232 232 230 233
6 3 13 6 357 346 353 10 19 55 85 109 112 112 118 114 114 119 81 73 293 294 341 308 150 204 304 349 353 12 93 94 226 317 347 14 88 56 87 114 84 60 9 14 138 142 195 228 158 91 94 137 150 8 54 71 3 303 179 170 231 266 228 236 286 326 321 323 247 301 315 288 312 340 286 267 243 261 265 255 257 243 236 245 250 245 234 232
2 352 354 353 350 338 338 10 43 95 109 111 111 114 119 108 88 120 94 56 335 297 327 284 182 204 232 339 343 334 132 58 240 293 341 26 90 36 79 130 89 99 241 66 108 114 181 225 132 81 49 71 114 323 80 117 4 311 231 194 211 251 248 255 316 348 346 347 263 12 351 293 308 305 271 306 297 259 249 250 256 251 242 243 246 246 239 235
352 336 340 340 337 342 339 6 79 119 115 108 121 120 110 103 87 109 95 52 327 287 323 238 145 2 304 343 340 337 92 355 302 329 360 21 23 94 95 341 56 137 196 162 100 139 187 359 58 117 86 61 79 201 225 139 93 316 248 183 188 240 262 264 290 20 306 274 268 81 121 264 305 300 273 315 294 269 266 253 255 256 247 236 238 244 238 235
352 335 337 334 330 337 323 258 174 154 136 165 155 128 116 118 95 90 72 37 322 264 8 249 272 35 327 323 343 94 119 298 325 23 21 15 349 70 90 291 82 120 177 122 30 237 202 20 41 77 78 67 73 182 208 140 113 251 219 128 185 263 265 248 189 191 242 278 319 21 138 231 294 282 280 331 299 283 279 261 256 252 244 239 239 241 237 233
1 346 343 339 334 337 334 178 179 178 160 185 173 149 137 145 99 71 83 56 298 198 73 289 324 30 328 343 29 79 216 307 41 336 354 29 12 46 78 191 155 132 67 117 232 271 182 234 228 103 82 77 210 201 179 146 138 244 199 154 287 259 232 190 152 190 286 1 320 306 127 214 273 271 322 2 307 287 278 263 258 251 243 240 240 240 238 235
12 359 354 349 341 349 36 119 177 209 204 171 170 182 218 201 6 57 79 159 287 44 85 343 341 318 336 8 18 22 359 7 72 297 339 40 34 45 89 167 132 121 47 93 180 243 124 228 207 142 136 218 233 213 167 159 214 266 192 160 10 73 117 111 125 153 51 18 269 246 148 148 273 276 313 17 272 264 263 262 259 255 251 241 239 242 239 238
14 8 4 359 345 351 61 39 314 202 166 156 166 195 322 43 55 62 47 242 276 335 232 9 304 322 15 28 351 2 31 356 329 331 354 36 11 30 93 159 103 110 17 40 130 232 326 267 191 136 173 201 210 223 170 177 238 324 9 21 31 50 61 68 90 97 66 316 260 241 196 101 295 280 246 207 219 216 228 261 270 267 266 252 240 241 238 237
5 9 10 11 13 353 292 25 80 146 142 143 157 108 35 26 64 93 221 245 227 308 356 28 322 16 38 62 323 358 20 340 331 5 16 3 359 14 48 63 64 73 9 5 348 305 345 349 240 275 237 135 63 4 169 186 312 19 31 20 1 347 29 28 352 45 87 271 262 254 282 121 232 265 245 236 248 221 208 246 263 266 267 259 245 240 237 236
359 2 9 19 31 34 70 119 120 129 133 137 122 65 65 36 10 162 259 305 349 298 347 23 310 31 37 37 37 345 336 340 5 54 53 25 30 13 25 161 173 24 343 301 321 329 306 235 266 321 276 130 79 360 339 355 30 44 46 43 23 345 4 360 322 342 211 248 239 217 311 265 230 253 257 258 263 248 224 228 244 256 262 259 248 240 240 237
355 357 7 19 30 46 78 108 124 123 126 126 88 52 75 83 248 225 269 324 336 309 32 58 333 44 37 352 358 328 306 312 12 49 105 101 67 28 312 213 145 66 303 226 332 348 324 295 313 349 277 95 114 127 312 328 22 29 76 91 80 47 12 316 286 304 275 270 264 230 316 286 269 271 248 242 253 251 232 231 238 248 254 256 251 248 253 247
350 353 2 19 29 42 72 100 129 127 116 105 75 55 75 127 236 214 268 265 256 350 27 64 3 10 43 15 299 309 338 308 355 28 12 24 58 83 282 315 42 91 105 118 346 65 337 297 282 173 224 27 107 160 170 157 90 12 158 129 130 143 148 263 240 258 285 292 293 296 253 217 234 274 234 223 252 263 245 243 248 255 254 255 269 271 263 252
344 346 357 21 25 32 72 118 146 139 123 90 63 69 132 233 247 201 240 249 243 359 343 54 58 38 356 326 312 344 100 287 349 28 9 13 166 179 189 253 264 106 116 138 266 154 181 262 269 294 240 106 110 181 130 107 92 238 151 116 163 170 154 198 200 198 264 316 296 261 237 216 222 276 274 263 282 274 259 256 259 264 260 255 268 265 254 250
336 342 15 23 16 27 73 135 156 143 114 86 64 82 197 229 239 186 209 212 129 155 166 359 49 66 322 313 334 8 27 285 339 12 330 271 206 183 177 223 200 129 138 155 223 167 76 279 293 344 4 85 128 197 112 69 152 127 118 190 231 164 121 111 265 323 65 343 280 237 254 282 316 296 298 351 325 293 288 279 262 263 271 268 259 258 252 248
337 357 44 20 12 28 67 143 151 139 90 85 95 212 220 222 181 185 200 33 151 131 112 297 312 88 270 296 307 323 348 301 328 359 265 266 228 171 166 228 189 161 178 161 212 199 144 282 297 34 101 319 255 160 37 18 130 118 184 218 207 98 89 93 318 345 36 268 272 249 253 287 333 303 310 343 314 289 287 284 279 276 274 262 255 256 253 248
342 32 70 18 12 21 54 115 139 121 80 79 163 242 220 198 159 154 164 140 198 81 95 182 240 229 193 235 281 280 329 290 317 359 243 257 264 157 142 179 175 231 244 135 113 228 123 283 300 5 183 302 357 74 347 341 82 123 197 197 106 148 259 47 143 308 352 287 285 294 275 267 232 239 282 291 266 271 281 286 288 278 264 255 256 258 256 253
342 17 32 9 12 19 27 157 117 75 71 94 231 248 213 220 277 228 193 194 132 107 119 214 259 40 168 180 230 253 293 246 247 358 229 239 279 154 130 168 174 32 321 99 123 213 107 149 284 286 229 301 4 82 241 286 51 52 20 359 40 155 183 186 167 172 186 265 287 312 328 265 229 211 219 253 263 273 281 283 277 267 259 255 255 257 257 250
358 44 297 350 12 26 16 44 60 58 74 175 208 210 281 268 265 290 273 261 177 154 203 203 150 47 215 208 220 234 28 199 187 193 232 244 273 235 150 157 153 147 27 58 109 182 74 137 250 295 311 290 258 208 198 182 152 107 105 257 303 124 152 220 240 143 144 180 236 296 306 270 250 199 202 250 272 272 266 265 265 266 265 262 256 255 256 248
49 63 292 343 10 325 35 48 45 62 113 176 207 200 289 169 169 326 334 13 136 234 177 159 155 173 194 211 254 219 159 198 195 208 240 239 238 248 318 80 149 154 127 98 150 200 117 160 211 287 304 239 236 236 192 179 167 156 179 200 189 151 124 182 288 285 117 167 191 184 284 277 271 161 198 242 260 263 260 252 261 272 271 270 265 253 249 247
75 87 292 356 4 253 54 56 18 67 117 161 251 219 297 78 123 351 340 27 56 67 64 108 150 174 170 173 221 184 172 219 202 206 235 222 205 221 312 37 108 136 118 138 237 224 142 113 150 266 261 237 250 278 140 173 159 144 186 193 154 138 132 152 234 256 175 195 180 117 264 273 272 137 189 233 242 258 265 253 262 275 275 274 274 264 254 250
100 198 286 13 355 353 69 49 316 14 56 249 285 271 280 89 113 87 283 319 39 117 16 21 187 194 203 187 138 167 198 211 190 196 229 234 228 235 340 28 42 90 95 130 236 211 111 90 41 277 289 301 310 350 42 93 107 153 236 167 146 161 144 155 182 191 194 207 168 95 265 268 292 90 205 237 265 278 279 263 260 272 280 278 273 271 264 257
151 219 258 3 345 39 112 196 257 338 292 303 6 311 263 172 154 161 210 246 231 156 125 235 202 175 159 118 101 179 206 220 215 220 217 217 238 11 22 351 3 129 147 183 185 182 248 177 104 325 323 332 342 354 348 338 140 225 246 195 168 129 101 112 154 108 283 222 174 161 257 260 288 342 280 295 318 302 288 275 257 258 275 280 277 276 268 261
98 271 283 344 14 71 134 186 148 147 231 16 12 256 246 231 192 186 192 207 201 164 152 299 227 117 90 90 78 206 209 235 252 295 13 241 262 345 13 321 339 157 244 277 10 249 234 193 146 190 281 291 300 302 287 272 243 237 233 199 198 154 139 163 145 114 244 236 169 177 250 271 296 305 298 305 314 306 300 299 289 268 269 276 279 278 270 262
82 335 305 329 15 58 68 117 108 117 163 162 279 288 164 168 286 275 170 168 162 132 115 319 143 97 71 95 166 268 257 251 343 341 301 248 267 299 272 322 60 184 235 302 34 73 100 236 212 200 210 232 254 256 211 118 279 274 263 221 201 194 169 134 107 177 200 192 207 225 244 278 293 292 295 305 307 303 303 306 306 299 291 287 283 281 276 265
103 178 173 323 344 35 38 18 63 86 161 184 194 254 199 236 307 339 128 203 297 90 103 128 150 165 179 174 197 247 248 262 56 245 236 233 256 284 264 158 89 274 241 272 20 88 95 287 246 209 228 245 257 267 287 13 273 266 269 248 199 191 170 157 202 222 157 114 268 254 225 252 278 282 291 300 299 299 302 303 304 304 301 296 291 286 281 273
65 189 153 128 271 303 27 5 84 92 71 154 149 166 201 259 276 227 206 355 2 312 181 297 241 212 193 173 161 203 255 298 263 242 234 245 272 336 342 220 101 341 349 35 354 101 127 258 245 197 249 264 268 276 278 270 263 261 266 259 217 188 182 197 225 225 165 196 259 268 253 252 272 283 290 291 291 296 301 301 301 301 299 296 293 290 286 282
51 130 303 16 111 194 211 341 107 105 84 73 106 177 177 189 233 238 195 68 354 297 195 234 261 238 203 180 154 172 214 212 273 266 218 198 235 32 317 253 147 360 13 88 345 125 148 247 251 172 279 278 275 280 273 254 267 273 266 252 220 204 202 212 234 234 210 236 258 271 279 278 278 279 281 285 289 295 299 299 300 302 303 301 298 298 295 291
100 168 244 33 62 135 30 18 91 107 61 10 282 242 179 178 217 246 181 151 211 268 181 221 254 243 196 185 170 204 218 190 214 255 188 164 253 210 217 226 143 51 22 112 335 299 194 268 265 95 308 285 288 323 323 245 249 270 276 267 229 214 218 226 244 247 232 250 261 271 281 280 274 272 274 281 292 302 304 304 305 305 306 307 306 304 300 295
139 157 147 111 94 321 357 7 87 111 54 305 214 231 215 200 210 213 205 185 172 178 187 200 220 167 108 172 204 238 234 187 199 232 190 179 237 213 215 218 138 127 141 159 73 89 178 277 5 50 340 288 319 5 332 295 276 272 285 290 224 191 210 227 235 219 203 238 269 284 283 274 275 287 294 293 301 311 311 310 310 310 312 313 310 304 301 298
154 94 92 108 102 297 96 46 42 97 237 240 201 205 226 243 231 194 210 315 81 148 196 187 168 122 95 198 226 242 237 195 216 240 195 170 114 90 93 98 116 129 159 164 142 128 144 150 4 38 318 276 300 335 315 319 323 292 279 265 175 187 223 243 250 230 207 209 263 274 263 277 299 315 314 312 317 320 317 314 309 308 312 312 306 302 301 300